ARG1500 SABE-SASA

Flight info

Callsign ARG1500
Flight time 1h 47m
Altitude 38000
Route BIVAM4B BIVAM UW8 ERE UT672 DADMI UT677 ILPAR ILPAR2N
Aircraft B38M/M-SDE1FGHILORVWXY/HB1

Departure

Time 2026-04-16 21:05
Airport Aeroparque Jorge Newbery (SABE)

Arrival

Time 2026-04-16 22:52
Airport Martín Miguel de Güemes International Airport (SASA)
Time Latitude Longitude Altitude Speed Heading
2026-04-16 20:23 -34.56080 -58.40851 28 ft 0 kts 38°
2026-04-16 20:48 -34.56086 -58.40857 28 ft 4 kts 37°
2026-04-16 20:49 -34.56108 -58.40877 28 ft 4 kts 41°
2026-04-16 20:49 -34.56110 -58.40879 28 ft 0 kts 43°
2026-04-16 20:49 -34.56080 -58.40851 28 ft 0 kts 38°
2026-04-16 20:54 -34.56086 -58.40857 28 ft 4 kts 38°
2026-04-16 20:54 -34.56108 -58.40876 28 ft 4 kts 33°
2026-04-16 20:55 -34.56130 -58.40889 28 ft 4 kts 358°
2026-04-16 20:55 -34.56144 -58.40880 28 ft 4 kts 305°
2026-04-16 20:55 -34.56157 -58.40856 28 ft 1 kts 304°
2026-04-16 20:59 -34.56151 -58.40868 28 ft 3 kts 304°
2026-04-16 21:00 -34.56145 -58.40912 28 ft 8 kts 262°
2026-04-16 21:00 -34.56107 -58.41008 28 ft 18 kts 307°
2026-04-16 21:00 -34.56030 -58.41132 28 ft 17 kts 307°
2026-04-16 21:00 -34.55956 -58.41250 28 ft 18 kts 307°
2026-04-16 21:01 -34.55890 -58.41384 28 ft 19 kts 296°
2026-04-16 21:01 -34.55827 -58.41535 28 ft 20 kts 297°
2026-04-16 21:01 -34.55768 -58.41677 28 ft 19 kts 296°
2026-04-16 21:01 -34.55706 -58.41811 28 ft 18 kts 304°
2026-04-16 21:02 -34.55637 -58.41934 28 ft 16 kts 304°
2026-04-16 21:02 -34.55569 -58.42053 28 ft 18 kts 307°
2026-04-16 21:02 -34.55492 -58.42179 28 ft 19 kts 307°
2026-04-16 21:03 -34.55380 -58.42360 28 ft 8 kts 307°
2026-04-16 21:03 -34.55364 -58.42423 28 ft 9 kts 278°
2026-04-16 21:03 -34.55370 -58.42487 28 ft 7 kts 232°
2026-04-16 21:03 -34.55403 -58.42499 28 ft 3 kts 153°
2026-04-16 21:04 -34.55427 -58.42470 28 ft 0 kts 124°
2026-04-16 21:04 -34.55578 -58.42199 29 ft 77 kts 124°
2026-04-16 21:04 -34.56011 -58.41426 28 ft 141 kts 126°
2026-04-16 21:05 -34.56500 -58.40474 279 ft 160 kts 123°
2026-04-16 21:05 -34.57090 -58.39310 1041 ft 158 kts 128°
2026-04-16 21:05 -34.57652 -58.38155 1751 ft 169 kts 117°
2026-04-16 21:05 -34.57749 -58.36637 2178 ft 201 kts 77°
2026-04-16 21:06 -34.56865 -58.35155 2577 ft 238 kts 35°
2026-04-16 21:06 -34.55317 -58.34212 3105 ft 259 kts 31°
2026-04-16 21:06 -34.53748 -58.32996 3722 ft 276 kts 35°
2026-04-16 21:06 -34.52098 -58.31679 4415 ft 290 kts 34°
2026-04-16 21:07 -34.50232 -58.30801 5259 ft 294 kts
2026-04-16 21:07 -34.48244 -58.31179 6150 ft 292 kts 330°
2026-04-16 21:07 -34.46707 -58.32715 6978 ft 286 kts 303°
2026-04-16 21:07 -34.45433 -58.34592 7817 ft 291 kts 308°
2026-04-16 21:08 -34.44064 -58.36401 8742 ft 293 kts 309°
2026-04-16 21:08 -34.42653 -58.38215 9641 ft 296 kts 310°
2026-04-16 21:08 -34.41211 -58.40043 10301 ft 307 kts 310°
2026-04-16 21:08 -34.39675 -58.41956 10727 ft 325 kts 311°
2026-04-16 21:09 -34.38059 -58.43946 11255 ft 337 kts 311°
2026-04-16 21:09 -34.36404 -58.45989 11998 ft 341 kts 311°
2026-04-16 21:09 -34.34735 -58.48063 12772 ft 345 kts 311°
2026-04-16 21:09 -34.33049 -58.50155 13513 ft 350 kts 311°
2026-04-16 21:10 -34.31339 -58.52278 14222 ft 353 kts 311°
2026-04-16 21:10 -34.29622 -58.54408 14960 ft 355 kts 311°
2026-04-16 21:10 -34.27916 -58.56526 15676 ft 358 kts 311°
2026-04-16 21:10 -34.26147 -58.58719 16361 ft 361 kts 311°
2026-04-16 21:11 -34.24387 -58.60900 17052 ft 364 kts 311°
2026-04-16 21:11 -34.22610 -58.63101 17711 ft 367 kts 312°
2026-04-16 21:11 -34.20817 -58.65320 18314 ft 371 kts 312°
2026-04-16 21:11 -34.19011 -58.67555 18892 ft 373 kts 312°
2026-04-16 21:12 -34.17192 -58.69805 19461 ft 376 kts 312°
2026-04-16 21:12 -34.15361 -58.72068 20018 ft 378 kts 312°
2026-04-16 21:12 -34.13514 -58.74350 20572 ft 381 kts 312°
2026-04-16 21:12 -34.11657 -58.76643 21152 ft 383 kts 312°
2026-04-16 21:13 -34.09789 -58.78948 21685 ft 386 kts 312°
2026-04-16 21:13 -34.07927 -58.81244 22239 ft 388 kts 312°
2026-04-16 21:13 -34.06029 -58.83583 22798 ft 391 kts 312°
2026-04-16 21:13 -34.04117 -58.85938 23329 ft 394 kts 312°
2026-04-16 21:14 -34.02193 -58.88306 23784 ft 397 kts 312°
2026-04-16 21:14 -34.00252 -58.90695 24248 ft 400 kts 312°
2026-04-16 21:14 -33.98297 -58.93097 24697 ft 402 kts 313°
2026-04-16 21:14 -33.96132 -58.95241 25153 ft 407 kts 327°
2026-04-16 21:15 -33.93704 -58.96998 25668 ft 407 kts 326°
2026-04-16 21:15 -33.91421 -58.98699 26023 ft 411 kts 326°
2026-04-16 21:15 -33.88972 -59.00502 26482 ft 413 kts 326°
2026-04-16 21:15 -33.86510 -59.02305 26904 ft 416 kts 327°
2026-04-16 21:16 -33.84027 -59.04119 27283 ft 420 kts 326°
2026-04-16 21:16 -33.81508 -59.05956 27541 ft 426 kts 326°
2026-04-16 21:16 -33.78976 -59.07801 28014 ft 427 kts 326°
2026-04-16 21:16 -33.76432 -59.09654 28474 ft 428 kts 326°
2026-04-16 21:17 -33.73879 -59.11512 28924 ft 429 kts 326°
2026-04-16 21:17 -33.71311 -59.13379 29276 ft 432 kts 326°
2026-04-16 21:17 -33.68761 -59.15233 29673 ft 435 kts 327°
2026-04-16 21:17 -33.66165 -59.17118 30008 ft 437 kts 327°
2026-04-16 21:18 -33.63558 -59.19010 30337 ft 439 kts 327°
2026-04-16 21:18 -33.60933 -59.20914 30660 ft 441 kts 327°
2026-04-16 21:18 -33.58299 -59.22823 30999 ft 443 kts 326°
2026-04-16 21:18 -33.55660 -59.24734 31388 ft 443 kts 326°
2026-04-16 21:19 -33.53004 -59.26656 31690 ft 445 kts 326°
2026-04-16 21:19 -33.50342 -59.28580 31994 ft 448 kts 327°
2026-04-16 21:19 -33.47695 -59.30493 32301 ft 449 kts 327°
2026-04-16 21:19 -33.45016 -59.32429 32648 ft 450 kts 326°
2026-04-16 21:20 -33.42332 -59.34365 32978 ft 452 kts 326°
2026-04-16 21:20 -33.39685 -59.36273 33279 ft 453 kts 326°
2026-04-16 21:20 -33.36992 -59.38213 33757 ft 451 kts 326°
2026-04-16 21:20 -33.34341 -59.40121 34119 ft 450 kts 326°
2026-04-16 21:21 -33.31657 -59.42053 34461 ft 449 kts 326°
2026-04-16 21:21 -33.28992 -59.43969 34787 ft 448 kts 326°
2026-04-16 21:21 -33.26317 -59.45890 35096 ft 448 kts 326°
2026-04-16 21:21 -33.23653 -59.47803 35406 ft 447 kts 326°
2026-04-16 21:22 -33.20984 -59.49718 35708 ft 446 kts 326°
2026-04-16 21:22 -33.18328 -59.51621 36054 ft 444 kts 326°
2026-04-16 21:22 -33.15682 -59.53517 36379 ft 443 kts 326°
2026-04-16 21:22 -33.13037 -59.55410 36652 ft 442 kts 326°
2026-04-16 21:23 -33.10464 -59.57251 36911 ft 442 kts 326°
2026-04-16 21:23 -33.07949 -59.59048 37150 ft 442 kts 326°
2026-04-16 21:23 -33.05306 -59.60937 37411 ft 442 kts 326°
2026-04-16 21:23 -33.02871 -59.62675 37571 ft 443 kts 326°
2026-04-16 21:24 -33.00226 -59.64562 37735 ft 444 kts 326°
2026-04-16 21:24 -32.94918 -59.68344 37783 ft 442 kts 326°
2026-04-16 21:25 -32.89649 -59.72094 37804 ft 442 kts 326°
2026-04-16 21:25 -32.84403 -59.75821 37798 ft 442 kts 326°
2026-04-16 21:26 -32.79136 -59.79559 37800 ft 440 kts 326°
2026-04-16 21:26 -32.73880 -59.83284 37820 ft 440 kts 326°
2026-04-16 21:27 -32.68622 -59.87006 37804 ft 440 kts 326°
2026-04-16 21:27 -32.63364 -59.90723 37807 ft 441 kts 326°
2026-04-16 21:28 -32.58071 -59.94459 37812 ft 443 kts 326°
2026-04-16 21:28 -32.52775 -59.98196 37823 ft 443 kts 326°
2026-04-16 21:29 -32.47481 -60.01927 37815 ft 443 kts 326°
2026-04-16 21:29 -32.42188 -60.05653 37816 ft 442 kts 326°
2026-04-16 21:30 -32.36902 -60.09368 37814 ft 441 kts 326°
2026-04-16 21:30 -32.31659 -60.13047 37819 ft 441 kts 326°
2026-04-16 21:31 -32.26382 -60.16746 37816 ft 441 kts 326°
2026-04-16 21:31 -32.21083 -60.20456 37823 ft 443 kts 325°
2026-04-16 21:32 -32.15769 -60.24169 37820 ft 443 kts 325°
2026-04-16 21:32 -32.10469 -60.27869 37823 ft 443 kts 325°
2026-04-16 21:33 -32.06055 -60.30947 37835 ft 443 kts 325°
2026-04-16 21:33 -32.00743 -60.34645 37815 ft 442 kts 325°
2026-04-16 21:34 -31.95452 -60.38324 37820 ft 441 kts 325°
2026-04-16 21:34 -31.90159 -60.42000 37829 ft 442 kts 325°
2026-04-16 21:35 -31.84867 -60.45670 37829 ft 442 kts 325°
2026-04-16 21:35 -31.79632 -60.49452 37835 ft 440 kts 322°
2026-04-16 21:36 -31.74501 -60.53389 37828 ft 440 kts 322°
2026-04-16 21:36 -31.69390 -60.57281 37831 ft 441 kts 322°
2026-04-16 21:37 -31.64243 -60.61193 37829 ft 441 kts 322°
2026-04-16 21:37 -31.59100 -60.65096 37840 ft 439 kts 322°
2026-04-16 21:38 -31.53980 -60.68976 37840 ft 438 kts 322°
2026-04-16 21:38 -31.48853 -60.72857 37839 ft 438 kts 322°
2026-04-16 21:39 -31.43728 -60.76731 37833 ft 439 kts 322°
2026-04-16 21:39 -31.38579 -60.80618 37840 ft 439 kts 321°
2026-04-16 21:40 -31.33452 -60.84483 37843 ft 438 kts 321°
2026-04-16 21:40 -31.28372 -60.88308 37848 ft 438 kts 321°
2026-04-16 21:41 -31.23282 -60.92135 37843 ft 438 kts 321°
2026-04-16 21:41 -31.18153 -60.95987 37842 ft 437 kts 321°
2026-04-16 21:42 -31.13044 -60.99819 37853 ft 436 kts 321°
2026-04-16 21:42 -31.07931 -61.03649 37846 ft 436 kts 321°
2026-04-16 21:43 -31.02810 -61.07479 37851 ft 438 kts 321°
2026-04-16 21:43 -30.97673 -61.11314 37846 ft 438 kts 321°
2026-04-16 21:44 -30.92552 -61.15133 37848 ft 437 kts 321°
2026-04-16 21:44 -30.87420 -61.18954 37855 ft 437 kts 321°
2026-04-16 21:45 -30.82288 -61.22772 37856 ft 437 kts 321°
2026-04-16 21:45 -30.77165 -61.26577 37846 ft 436 kts 321°
2026-04-16 21:46 -30.72052 -61.30370 37853 ft 435 kts 320°
2026-04-16 21:46 -30.66943 -61.34155 37855 ft 435 kts 321°
2026-04-16 21:47 -30.61825 -61.37942 37862 ft 437 kts 321°
2026-04-16 21:47 -30.56688 -61.41739 37859 ft 437 kts 321°
2026-04-16 21:48 -30.51555 -61.45527 37862 ft 437 kts 321°
2026-04-16 21:48 -30.46448 -61.49292 37862 ft 437 kts 321°
2026-04-16 21:49 -30.41310 -61.53075 37862 ft 438 kts 321°
2026-04-16 21:49 -30.36170 -61.56855 37848 ft 437 kts 321°
2026-04-16 21:50 -30.31037 -61.60623 37860 ft 436 kts 321°
2026-04-16 21:50 -30.25902 -61.64390 37862 ft 436 kts 321°
2026-04-16 21:51 -30.20768 -61.68151 37862 ft 436 kts 321°
2026-04-16 21:51 -30.15668 -61.71881 37841 ft 437 kts 321°
2026-04-16 21:52 -30.10529 -61.75637 37864 ft 437 kts 321°
2026-04-16 21:52 -30.05398 -61.79382 37867 ft 437 kts 321°
2026-04-16 21:53 -30.00260 -61.83126 37867 ft 437 kts 321°
2026-04-16 21:53 -29.95122 -61.86868 37867 ft 437 kts 321°
2026-04-16 21:54 -29.89986 -61.90602 37867 ft 436 kts 321°
2026-04-16 21:54 -29.84682 -61.94062 37884 ft 441 kts 325°
2026-04-16 21:55 -29.79252 -61.97383 37861 ft 442 kts 325°
2026-04-16 21:55 -29.73838 -62.00725 37868 ft 442 kts 325°
2026-04-16 21:56 -29.68417 -62.04071 37862 ft 440 kts 325°
2026-04-16 21:56 -29.63024 -62.07395 37877 ft 440 kts 325°
2026-04-16 21:57 -29.57657 -62.10700 37871 ft 440 kts 325°
2026-04-16 21:57 -29.52258 -62.14020 37872 ft 440 kts 325°
2026-04-16 21:58 -29.46869 -62.17330 37860 ft 438 kts 325°
2026-04-16 21:58 -29.41503 -62.20622 37863 ft 437 kts 325°
2026-04-16 21:59 -29.36129 -62.23916 37867 ft 438 kts 325°
2026-04-16 21:59 -29.30746 -62.27210 37871 ft 440 kts 325°
2026-04-16 22:00 -29.25348 -62.30510 37857 ft 438 kts 325°
2026-04-16 22:00 -29.19976 -62.33790 37867 ft 437 kts 325°
2026-04-16 22:01 -29.14638 -62.37044 37870 ft 437 kts 325°
2026-04-16 22:01 -29.09271 -62.40314 37867 ft 437 kts 325°
2026-04-16 22:02 -29.03897 -62.43583 37853 ft 437 kts 325°
2026-04-16 22:02 -28.98543 -62.46836 37865 ft 436 kts 325°
2026-04-16 22:03 -28.93181 -62.50090 37867 ft 436 kts 325°
2026-04-16 22:03 -28.87827 -62.53337 37866 ft 436 kts 325°
2026-04-16 22:04 -28.82548 -62.56705 37855 ft 430 kts 317°
2026-04-16 22:04 -28.77720 -62.60698 37861 ft 428 kts 317°
2026-04-16 22:05 -28.72907 -62.64687 37869 ft 427 kts 317°
2026-04-16 22:05 -28.68135 -62.68644 37868 ft 427 kts 317°
2026-04-16 22:06 -28.63322 -62.72630 37868 ft 427 kts 317°
2026-04-16 22:06 -28.56115 -62.78591 37868 ft 423 kts 318°
2026-04-16 22:07 -28.51358 -62.82521 37863 ft 423 kts 318°
2026-04-16 22:07 -28.46587 -62.86457 37885 ft 425 kts 318°
2026-04-16 22:08 -28.41824 -62.90383 37860 ft 425 kts 318°
2026-04-16 22:08 -28.37041 -62.94320 37872 ft 425 kts 318°
2026-04-16 22:09 -28.32244 -62.98264 37863 ft 425 kts 318°
2026-04-16 22:09 -28.27456 -63.02196 37877 ft 425 kts 318°
2026-04-16 22:10 -28.22664 -63.06127 37875 ft 425 kts 318°
2026-04-16 22:10 -28.17871 -63.10055 37861 ft 425 kts 318°
2026-04-16 22:11 -28.13078 -63.13977 37864 ft 423 kts 318°
2026-04-16 22:11 -28.08307 -63.17879 37867 ft 424 kts 318°
2026-04-16 22:12 -28.03551 -63.21763 37862 ft 424 kts 318°
2026-04-16 22:12 -27.98766 -63.25666 37864 ft 424 kts 318°
2026-04-16 22:13 -27.93980 -63.29566 37862 ft 424 kts 318°
2026-04-16 22:13 -27.89198 -63.33458 37864 ft 422 kts 318°
2026-04-16 22:14 -27.84432 -63.37333 37863 ft 421 kts 318°
2026-04-16 22:14 -27.79677 -63.41195 37867 ft 421 kts 318°
2026-04-16 22:15 -27.74918 -63.45056 37856 ft 421 kts 318°
2026-04-16 22:15 -27.70144 -63.48925 37865 ft 423 kts 318°
2026-04-16 22:16 -27.65381 -63.52780 37860 ft 420 kts 318°
2026-04-16 22:16 -27.60635 -63.56617 37862 ft 420 kts 318°
2026-04-16 22:17 -27.55913 -63.60431 37862 ft 420 kts 318°
2026-04-16 22:17 -27.51168 -63.64259 37856 ft 420 kts 318°
2026-04-16 22:18 -27.46420 -63.68086 37831 ft 420 kts 317°
2026-04-16 22:18 -27.41699 -63.71887 37855 ft 415 kts 317°
2026-04-16 22:19 -27.37008 -63.75659 37860 ft 415 kts 317°
2026-04-16 22:19 -27.32291 -63.79449 37859 ft 417 kts 317°
2026-04-16 22:20 -27.27566 -63.83241 37857 ft 417 kts 317°
2026-04-16 22:20 -27.23636 -63.86392 37856 ft 417 kts 318°
2026-04-16 22:21 -27.18932 -63.90160 37858 ft 413 kts 317°
2026-04-16 22:21 -27.14251 -63.93905 37860 ft 413 kts 317°
2026-04-16 22:22 -27.09560 -63.97655 37858 ft 413 kts 317°
2026-04-16 22:22 -27.04872 -64.01399 37859 ft 413 kts 317°
2026-04-16 22:23 -27.00187 -64.05137 37865 ft 413 kts 317°
2026-04-16 22:23 -26.95553 -64.08858 37851 ft 411 kts 317°
2026-04-16 22:24 -26.90916 -64.12615 37864 ft 411 kts 317°
2026-04-16 22:24 -26.86289 -64.16358 37860 ft 411 kts 317°
2026-04-16 22:25 -26.81647 -64.20110 37864 ft 411 kts 317°
2026-04-16 22:25 -26.77011 -64.23853 37862 ft 411 kts 317°
2026-04-16 22:26 -26.72393 -64.27578 37870 ft 407 kts 317°
2026-04-16 22:26 -26.67795 -64.31282 37865 ft 407 kts 317°
2026-04-16 22:27 -26.65492 -64.33136 37760 ft 406 kts 317°
2026-04-16 22:27 -26.63199 -64.34981 37036 ft 405 kts 317°
2026-04-16 22:27 -26.60960 -64.36782 36680 ft 398 kts 317°
2026-04-16 22:27 -26.58746 -64.38561 36476 ft 387 kts 317°
2026-04-16 22:28 -26.56559 -64.40320 35800 ft 391 kts 317°
2026-04-16 22:28 -26.54321 -64.42117 34898 ft 400 kts 317°
2026-04-16 22:28 -26.52044 -64.43945 34038 ft 407 kts 317°
2026-04-16 22:28 -26.49729 -64.45802 33134 ft 412 kts 317°
2026-04-16 22:29 -26.47387 -64.47679 32414 ft 414 kts 317°
2026-04-16 22:29 -26.45061 -64.49543 31938 ft 409 kts 317°
2026-04-16 22:29 -26.42769 -64.51379 31551 ft 403 kts 317°
2026-04-16 22:29 -26.40504 -64.53193 31105 ft 399 kts 318°
2026-04-16 22:30 -26.38254 -64.54993 30607 ft 397 kts 318°
2026-04-16 22:30 -26.36015 -64.56784 30117 ft 396 kts 318°
2026-04-16 22:30 -26.33779 -64.58572 29568 ft 394 kts 318°
2026-04-16 22:30 -26.31557 -64.60348 29055 ft 391 kts 318°
2026-04-16 22:31 -26.29353 -64.62109 28606 ft 388 kts 318°
2026-04-16 22:31 -26.27170 -64.63852 28149 ft 385 kts 318°
2026-04-16 22:31 -26.25001 -64.65582 27703 ft 381 kts 318°
2026-04-16 22:31 -26.22875 -64.67278 27265 ft 379 kts 318°
2026-04-16 22:32 -26.20715 -64.69001 26820 ft 376 kts 319°
2026-04-16 22:32 -26.18617 -64.70672 26400 ft 374 kts 319°
2026-04-16 22:32 -26.16501 -64.72358 25974 ft 373 kts 319°
2026-04-16 22:32 -26.14396 -64.74034 25558 ft 371 kts 319°
2026-04-16 22:33 -26.12296 -64.75705 25135 ft 370 kts 319°
2026-04-16 22:33 -26.10200 -64.77373 24720 ft 369 kts 319°
2026-04-16 22:33 -26.08116 -64.79029 24319 ft 368 kts 319°
2026-04-16 22:33 -26.06031 -64.80686 23913 ft 367 kts 319°
2026-04-16 22:34 -26.03952 -64.82338 23507 ft 366 kts 320°
2026-04-16 22:34 -26.01887 -64.83977 23046 ft 365 kts 320°
2026-04-16 22:34 -25.99819 -64.85619 22641 ft 363 kts 319°
2026-04-16 22:34 -25.97768 -64.87246 22247 ft 360 kts 320°
2026-04-16 22:35 -25.95737 -64.88856 21877 ft 357 kts 319°
2026-04-16 22:35 -25.93724 -64.90452 21523 ft 354 kts 319°
2026-04-16 22:35 -25.91743 -64.92017 21117 ft 353 kts 320°
2026-04-16 22:35 -25.89750 -64.93597 20768 ft 351 kts 319°
2026-04-16 22:36 -25.87776 -64.95162 20412 ft 348 kts 320°
2026-04-16 22:36 -25.85808 -64.96720 20058 ft 346 kts 320°
2026-04-16 22:36 -25.83854 -64.98265 19722 ft 343 kts 320°
2026-04-16 22:36 -25.81914 -64.99799 19380 ft 341 kts 320°
2026-04-16 22:37 -25.79988 -65.01322 19040 ft 339 kts 320°
2026-04-16 22:37 -25.78077 -65.02832 18703 ft 337 kts 320°
2026-04-16 22:37 -25.76171 -65.04338 18368 ft 335 kts 320°
2026-04-16 22:37 -25.74274 -65.05836 18003 ft 333 kts 320°
2026-04-16 22:38 -25.72388 -65.07324 17642 ft 331 kts 321°
2026-04-16 22:38 -25.70514 -65.08801 17294 ft 328 kts 321°
2026-04-16 22:38 -25.68559 -65.10117 16917 ft 329 kts 327°
2026-04-16 22:38 -25.66582 -65.11381 16613 ft 326 kts 327°
2026-04-16 22:39 -25.64653 -65.12628 16294 ft 324 kts 327°
2026-04-16 22:39 -25.62719 -65.13887 15972 ft 322 kts 327°
2026-04-16 22:39 -25.60793 -65.15145 15654 ft 321 kts 327°
2026-04-16 22:39 -25.58877 -65.16398 15337 ft 318 kts 327°
2026-04-16 22:40 -25.56977 -65.17641 15034 ft 316 kts 327°
2026-04-16 22:40 -25.55091 -65.18875 14713 ft 315 kts 328°
2026-04-16 22:40 -25.53211 -65.20104 14390 ft 314 kts 328°
2026-04-16 22:40 -25.51335 -65.21331 14076 ft 312 kts 328°
2026-04-16 22:41 -25.49474 -65.22547 13774 ft 309 kts 329°
2026-04-16 22:41 -25.47635 -65.23749 13433 ft 305 kts 329°
2026-04-16 22:41 -25.45815 -65.24938 13103 ft 302 kts 329°
2026-04-16 22:41 -25.44009 -65.26117 12798 ft 299 kts 329°
2026-04-16 22:42 -25.42229 -65.27278 12495 ft 296 kts 329°
2026-04-16 22:42 -25.40445 -65.28443 12201 ft 300 kts 329°
2026-04-16 22:42 -25.38633 -65.29624 11895 ft 303 kts 329°
2026-04-16 22:42 -25.36812 -65.30811 11585 ft 303 kts 329°
2026-04-16 22:43 -25.34999 -65.31992 11271 ft 300 kts 329°
2026-04-16 22:43 -25.33235 -65.33142 10970 ft 296 kts 329°
2026-04-16 22:43 -25.31447 -65.34306 10679 ft 292 kts 329°
2026-04-16 22:43 -25.29726 -65.35427 10388 ft 289 kts 329°
2026-04-16 22:44 -25.28012 -65.36543 10203 ft 283 kts 330°
2026-04-16 22:44 -25.26323 -65.37641 9909 ft 281 kts 330°
2026-04-16 22:44 -25.24641 -65.38735 9560 ft 280 kts 330°
2026-04-16 22:44 -25.22964 -65.39827 9190 ft 279 kts 330°
2026-04-16 22:45 -25.21311 -65.40900 9001 ft 270 kts 330°
2026-04-16 22:45 -25.19734 -65.41925 8997 ft 255 kts 330°
2026-04-16 22:45 -25.18245 -65.42892 8943 ft 241 kts 330°
2026-04-16 22:45 -25.16832 -65.43811 8854 ft 232 kts 330°
2026-04-16 22:46 -25.15414 -65.44735 8693 ft 241 kts 331°
2026-04-16 22:46 -25.13966 -65.45678 8446 ft 248 kts 330°
2026-04-16 22:46 -25.12456 -65.46662 8203 ft 248 kts 331°
2026-04-16 22:46 -25.10994 -65.47614 8035 ft 240 kts 330°
2026-04-16 22:47 -25.09598 -65.48524 7906 ft 231 kts 330°
2026-04-16 22:47 -25.08220 -65.49421 7738 ft 231 kts 331°
2026-04-16 22:47 -25.06830 -65.50325 7469 ft 232 kts 331°
2026-04-16 22:47 -25.05459 -65.51218 7149 ft 225 kts 332°
2026-04-16 22:48 -25.04132 -65.51996 7004 ft 208 kts 346°
2026-04-16 22:48 -25.02724 -65.52131 6892 ft 203 kts
2026-04-16 22:48 -25.01326 -65.51938 6719 ft 196 kts 10°
2026-04-16 22:48 -25.00012 -65.51696 6537 ft 189 kts 12°
2026-04-16 22:49 -24.98736 -65.51433 6300 ft 185 kts 12°
2026-04-16 22:49 -24.97478 -65.51165 6060 ft 179 kts 12°
2026-04-16 22:49 -24.96318 -65.50920 5856 ft 163 kts 13°
2026-04-16 22:49 -24.95226 -65.50687 5638 ft 156 kts 13°
2026-04-16 22:50 -24.94156 -65.50456 5409 ft 157 kts 13°
2026-04-16 22:50 -24.93081 -65.50227 5254 ft 157 kts 12°
2026-04-16 22:50 -24.92017 -65.49999 5021 ft 156 kts 12°
2026-04-16 22:50 -24.90946 -65.49772 4826 ft 157 kts 13°
2026-04-16 22:51 -24.89875 -65.49541 4586 ft 156 kts 13°
2026-04-16 22:51 -24.88817 -65.49315 4359 ft 154 kts 13°
2026-04-16 22:51 -24.87763 -65.49092 4161 ft 157 kts 13°
2026-04-16 22:51 -24.86716 -65.48870 4040 ft 142 kts 13°
2026-04-16 22:52 -24.85871 -65.48689 4021 ft 95 kts 12°
2026-04-16 22:52 -24.85474 -65.48599 4021 ft 38 kts 10°
2026-04-16 22:52 -24.85197 -65.48539 4020 ft 37 kts 12°
2026-04-16 22:52 -24.84996 -65.48497 4020 ft 25 kts 11°
2026-04-16 22:53 -24.84850 -65.48467 4021 ft 19 kts 10°
2026-04-16 22:53 -24.84736 -65.48441 4020 ft 16 kts 17°
2026-04-16 22:53 -24.84669 -65.48386 4020 ft 10 kts 42°
2026-04-16 22:53 -24.84616 -65.48330 4019 ft 11 kts 50°
2026-04-16 22:54 -24.84585 -65.48250 4020 ft 12 kts 72°
2026-04-16 22:54 -24.84566 -65.48184 4020 ft 9 kts 72°
2026-04-16 22:54 -24.84548 -65.48125 4020 ft 8 kts 72°
2026-04-16 22:54 -24.84533 -65.48074 4019 ft 7 kts 72°
2026-04-16 22:55 -24.84520 -65.48030 4020 ft 8 kts 71°
2026-04-16 22:55 -24.84507 -65.47986 4020 ft 5 kts 71°
2026-04-16 22:55 -24.84498 -65.47967 4019 ft 3 kts 49°
2026-04-16 22:55 -24.84484 -65.47958 4020 ft 2 kts 22°
2026-04-16 22:56 -24.84475 -65.47954 4019 ft 1 kts 21°
2026-04-16 22:56 -24.84470 -65.47952 4019 ft 1 kts 21°
2026-04-16 22:56 -24.84468 -65.47951 4019 ft 0 kts 21°